Regional Weather Roundup
Issued by NWS Cleveland, OH

Home | Current Version | Previous Version | Graphics & Text | Print | Product List | Glossary On
Versions: 1 2 3 4 5 6 7 8 9 10 11 12 13 14 15 16 17 18 19 20 21 22 23 24 25 26 27 28 29 30 31 32 33 34 35 36 37 38 39 40 41 42 43 44 45 46 47 48 49 50
195
ASUS41 KCLE 291412
RWRCLE
OHIO REGIONAL WEATHER ROUNDUP
NATIONAL WEATHER SERVICE WILMINGTON, OH
1000 AM EDT MON MAY 29 2017

NOTE: "FAIR" INDICATES FEW OR NO CLOUDS BELOW 12,000 FEET WITH NO
SIGNIFICANT WEATHER AND/OR OBSTRUCTIONS TO VISIBILITY.

OHZ001>008-015>018-024>027-034-035-043-044-291500-
   NORTHWEST OHIO

CITY           SKY/WX    TMP DP  RH WIND       PRES   REMARKS
DEFIANCE       FAIR      67  57  70 SW8       29.84S
FINDLAY        FAIR      71  57  61 SW10      29.85F
TOLEDO EXPRESS FAIR      67  59  75 S9        29.83F
TOLEDO EXEC    FAIR      69  60  73 SW10      29.84F
LIMA           FAIR      70  59  68 SW9       29.87F
$$

OHZ009>014-019>023-028>033-038-089-291500-
   NORTHEAST OHIO

CITY           SKY/WX    TMP DP  RH WIND       PRES   REMARKS
CLE-HOPKINS    FAIR      71  59  65 SW9       29.87S
CLE-LAKEFRONT  FAIR      69  57  65 SW9       29.85S
CUY CO. ARPT   SUNNY     70  55  60 W14       29.86R
LORAIN-ELYRIA  FAIR      69  54  58 W9        29.87R
ASHTABULA      FAIR      68  59  73 W10       29.86S
AKRON-CANTON   FAIR      69  57  65 W12       29.89S
WOOSTER        FAIR      69  58  67 W10       29.89S
MANSFIELD      FAIR      70  55  59 SW7       29.89S
YOUNGSTOWN     FAIR      67  56  67 W14       29.87S
$$

OHZ042-051>053-060>062-070>072-077>081-291500-
  SOUTHWEST OHIO

CITY           SKY/WX    TMP DP  RH WIND       PRES   REMARKS
CINC-COVINGTON FAIR      70  64  81 SW6       29.94R
CINC-LUNKEN    FAIR      71  65  81 S5        29.94R
HAMILTON       FAIR      71  65  81 W6        29.94R
DAYTON         FAIR      70  60  70 SW12      29.92R
WRIGHT-PAT AFB FAIR      69  63  81 SW7       29.91S
DAYTON GENERAL FAIR      69  60  73 SW9       29.92R
WILMINGTON     FAIR      70  63  78 SW9       29.93S
$$

OHZ036-037-039>041-045>050-054>059-063>069-073>076-082>088-291500-
  CENTRAL AND SOUTHEAST OHIO

CITY           SKY/WX    TMP DP  RH WIND       PRES   REMARKS
COLUMBUS       FAIR      72  59  63 W9        29.89F
OSU AIRPORT    FAIR      71  60  68 W9        29.90F
BOLTON FIELD   SUNNY     72  61  68 SW6       29.91F
RICKENBACK AFB FAIR      71  60  67 W7        29.91S
NEWARK         FAIR      73  58  59 W8        29.90S
MARION         FAIR      70  58  65 SW8       29.88F
LANCASTER      FAIR      73  61  65 W7        29.92S
ZANESVILLE     FAIR      71  61  70 W8        29.91F
NEW PHILLY     FAIR      70  58  65 W9        29.90S
$$




USA.gov is the U.S. government's official web portal to all federal, state and local government web resources and services.